Regional Weather Roundup
Issued by NWS

Home | Current Version | Previous Version | Graphics & Text | Print | Product List | Glossary On
Versions: 1 2 3 4 5 6 7 8 9 10 11 12 13 14 15 16 17 18 19 20 21 22 23 24 25 26 27 28 29 30 31 32 33 34 35 36 37 38 39 40 41 42 43 44 45 46 47 48 49 50
000
ASUS43 KFSD 021602
RWRSD

WEATHER ROUNDUP FOR SOUTH DAKOTA
NATIONAL WEATHER SERVICE SIOUX FALLS SD
1100 AM CDT WED SEP 02 2015

NOTE: "FAIR" INDICATES FEW OR NO CLOUDS BELOW 12,000 FEET WITH NO
SIGNIFICANT WEATHER AND/OR OBSTRUCTIONS TO VISIBILITY.


SDZ001>005-009-010-012>017-021700-
NORTHWEST AND NORTH CENTRAL SOUTH DAKOTA

CITY           SKY/WX    TMP DP  RH WIND       PRES   REMARKS
BUFFALO          N/A     82  54  37 S12       29.77F
FAITH            N/A     74  61  63 S8        29.82F
MOBRIDGE       PTSUNNY   72  69  90 NE5       29.78R
$$

SDZ012>016-024>037-041>051-057-063-072>074-021700-
SOUTHWEST AND SOUTH CENTRAL SOUTH DAKOTA

CITY           SKY/WX    TMP DP  RH WIND       PRES   REMARKS
RAPID CTY ARPT MOSUNNY   81  57  43 SE3       29.85S
PIERRE         CLOUDY    66  66 100 W3        29.77F FOG
CUSTER         MOSUNNY   77  43  29 W8        30.03F
ELLSWORTH AFB  CLOUDY    84  47  27 SW2       29.85S
PHILIP         MOSUNNY   77  57  50 CALM      29.81F
PINE RIDGE     MOSUNNY   83  49  30 SW7       29.91S
WINNER         FAIR      83  61  47 S9        29.82R
$$

SDZ004>011-016>023-039-040-021700-
NORTHEAST SOUTH DAKOTA

CITY           SKY/WX    TMP DP  RH WIND       PRES   REMARKS
ABERDEEN       SUNNY     79  69  71 S10       29.80S
WATERTOWN      SUNNY     78  69  73 S12       29.84S
BROOKINGS      SUNNY     75  68  78 SE13      29.86F
$$

SDZ017-020-022-023-036>040-048>070-021700-
SOUTHEAST SOUTH DAKOTA

CITY           SKY/WX    TMP DP  RH WIND       PRES   REMARKS
SIOUX FALLS    MOSUNNY   79  70  74 S8        29.86S
HURON          SUNNY     78  69  73 SE8       29.79F
CHAMBERLAIN    MOSUNNY   79  67  67 S3        29.79F
MITCHELL       SUNNY     79  70  74 SE12      29.81S
YANKTON        SUNNY     79  70  73 SE10      29.83S
$$

ABBREVIATIONS USED IN REMARKS
   TC - TEMPERATURE IN CELSIUS
  WCI - WIND CHILL INDEX
   HX - HEAT INDEX
  VSB - VISIBILITY




USA.gov is the U.S. government's official web portal to all federal, state and local government web resources and services.